Weather History for Scappoose, OR

Change the Weather History Date:

Tuesday, September 24, 2013

  Actual Average Record
Temperature  
Mean Temperature 54 °F -  
Max Temperature 59 °F - 86 °F (2006)
Min Temperature 49 °F - 35 °F (2000)
Degree Days  
Heating Degree Days 11    
Month to date heating degree days 58  
Since 1 July heating degree days 82  
Cooling Degree Days 0    
Month to date cooling degree days 72  
Year to date cooling degree days 396  
Growing Degree Days 4 (Base 50)    
Moisture  
Dew Point 50 °F    
Average Humidity 82    
Maximum Humidity 96    
Minimum Humidity 67    
Precipitation  
Precipitation 0.47 in - 0.47 in (2013)
Month to date precipitation 3.38  
Year to date precipitation 17.92  
Sea Level Pressure  
Sea Level Pressure 29.92 in    
Wind  
Wind Speed 1 mph (WSW)    
Max Wind Speed 15 mph    
Max Gust Speed 18 mph    
Visibility 8 miles    
Events Rain    
T = Trace of Precipitation, MM = Missing Value Source: NWS Daily Summary

Daily Weather History Graph

Daily Weather History Graph

Search for Another Location

Airport:

Trip Planner

Search our weather history database for the weather conditions in past years. The results will help you decide how hot, cold, wet, or windy it might be!

Date:

Astronomy

Sep. 24, 2013 Rise Set
Actual Time 7:01 AM PDT 7:04 PM PDT
Civil Twilight 6:31 AM PDT 7:34 PM PDT
Nautical Twilight 5:56 AM PDT 8:08 PM PDT
Astronomical Twilight 5:21 AM PDT 8:44 PM PDT
Moon 10:10 PM PDT (9/24) 12:36 PM PDT (9/24)
Length of Visible Light 13h 02m
Length of Day
12h 03m
Waning Gibbous, 72% of the Moon is Illuminated
Sep 24
Waning Gibbous
Sep 26
Last Quarter
Oct 4
New
Oct 11
First Quarter
Oct 18
Full

Hourly Weather History & Observations

Time (PDT) Temp. Dew Point Humidity Pressure Visibility Wind Dir Wind Speed Gust Speed Precip Events Conditions
12:53 AM 51.1 °F 48.9 °F 92% 29.99 in 10.0 mi Calm Calm - N/A   Overcast
1:33 AM 51.8 °F 50.0 °F 94% 29.98 in 10.0 mi Calm Calm - N/A   Overcast
1:42 AM 51.8 °F 50.0 °F 94% 29.98 in 10.0 mi Calm Calm - N/A   Overcast
1:53 AM 52.0 °F 50.0 °F 93% 29.98 in 10.0 mi NW 3.5 mph - N/A   Overcast
2:53 AM 52.0 °F 50.0 °F 93% 29.97 in 10.0 mi Calm Calm - N/A   Overcast
3:53 AM 51.1 °F 50.0 °F 96% 29.96 in 10.0 mi Calm Calm - N/A   Overcast
4:02 AM 51.8 °F 50.0 °F 94% 29.96 in 10.0 mi Calm Calm - N/A   Overcast
4:53 AM 52.0 °F 50.0 °F 93% 29.95 in 10.0 mi Calm Calm - 0.01 in   Overcast
5:53 AM 53.1 °F 51.1 °F 93% 29.94 in 10.0 mi Calm Calm - N/A   Overcast
6:53 AM 53.1 °F 51.1 °F 93% 29.93 in 10.0 mi Calm Calm - N/A   Overcast
7:53 AM 53.1 °F 51.1 °F 93% 29.93 in 10.0 mi Calm Calm - N/A   Overcast
8:31 AM 53.6 °F 51.8 °F 94% 29.93 in 10.0 mi Calm Calm - N/A   Overcast
8:53 AM 54.0 °F 52.0 °F 93% 29.94 in 10.0 mi Calm Calm - N/A   Overcast
9:53 AM 55.9 °F 51.1 °F 84% 29.94 in 10.0 mi Calm Calm - N/A   Overcast
10:50 AM 57.2 °F 51.8 °F 82% 29.93 in 10.0 mi Calm Calm - N/A   Overcast
10:53 AM 57.0 °F 51.1 °F 81% 29.94 in 10.0 mi Calm Calm - N/A   Overcast
11:33 AM 57.2 °F 51.8 °F 82% 29.92 in 10.0 mi Calm Calm - N/A   Overcast
11:49 AM 57.2 °F 51.8 °F 82% 29.92 in 10.0 mi Calm Calm - N/A   Overcast
11:53 AM 57.9 °F 51.1 °F 78% 29.92 in 10.0 mi Calm Calm - N/A   Overcast
12:09 PM 55.4 °F 50.0 °F 82% 29.93 in 3.0 mi WNW 5.8 mph - 0.05 in Rain Rain
12:11 PM 53.6 °F 48.2 °F 82% 29.93 in 1.8 mi NW 4.6 mph - 0.09 in Rain Heavy Rain
12:16 PM 51.8 °F 48.2 °F 88% 29.92 in 0.8 mi North 6.9 mph - 0.29 in Rain Heavy Rain
12:25 PM 53.6 °F 48.2 °F 82% 29.93 in 2.0 mi West 4.6 mph - 0.30 in Rain Light Rain
12:28 PM 51.8 °F 48.2 °F 88% 29.93 in 3.0 mi WSW 3.5 mph - 0.33 in Rain Light Rain
12:34 PM 51.8 °F 48.2 °F 88% 29.93 in 1.8 mi SW 4.6 mph - 0.37 in Rain Heavy Rain
12:45 PM 53.6 °F 48.2 °F 82% 29.92 in 3.0 mi Calm Calm - 0.40 in Rain Light Rain
12:53 PM 54.0 °F 51.1 °F 90% 29.92 in 10.0 mi East 4.6 mph - 0.40 in Rain Light Rain
1:53 PM 57.9 °F 52.0 °F 81% 29.90 in 10.0 mi South 3.5 mph - 0.00 in   Partly Cloudy
2:53 PM 57.9 °F 50.0 °F 75% 29.89 in 10.0 mi Calm Calm - 0.00 in   Mostly Cloudy
3:53 PM 59.0 °F 48.0 °F 67% 29.88 in 10.0 mi SW 5.8 mph - N/A   Overcast
4:53 PM 53.1 °F 46.9 °F 80% 29.88 in 3.0 mi SSW 3.5 mph - 0.04 in Rain Rain
5:53 PM 53.1 °F 50.0 °F 89% 29.88 in 10.0 mi South 4.6 mph - 0.02 in   Overcast
6:53 PM 52.0 °F 48.9 °F 89% 29.88 in 10.0 mi SSE 4.6 mph - N/A   Overcast
7:53 PM 51.1 °F 46.9 °F 86% 29.87 in 10.0 mi Calm Calm - N/A   Overcast
8:53 PM 50.0 °F 46.9 °F 89% 29.88 in 10.0 mi Calm Calm - N/A   Overcast
9:53 PM 50.0 °F 48.0 °F 93% 29.88 in 10.0 mi Calm Calm - N/A   Overcast
10:53 PM 51.1 °F 48.0 °F 89% 29.87 in 10.0 mi Calm Calm - N/A   Overcast
11:36 PM 50.0 °F 48.2 °F 94% 29.86 in 10.0 mi Calm Calm - N/A   Overcast
11:53 PM 50.0 °F 48.0 °F 93% 29.87 in 10.0 mi Calm Calm - N/A   Overcast